Glencoe, MN

5:17 PM CDT on September 26, 2017 (GMT -0500)
Glencoe Municipal

Weather History for KGYL - September, 2013

Change the Weather History Date:

Saturday, September 14, 2013

  Actual Average (KHCD) Record (KHCD)
Temperature  
Mean Temperature 60 °F -  
Max Temperature 73 °F 71 °F 87 °F (1969)
Min Temperature 49 °F 48 °F -122 °F (2004)
Degree Days  
Heating Degree Days 4    
Growing Degree Days 10 (Base 50)    
Moisture  
Dew Point 47 °F    
Average Humidity 67    
Maximum Humidity 89    
Minimum Humidity 35    
Precipitation  
Precipitation 0.29 in - - ()
Sea Level Pressure  
Sea Level Pressure 29.98 in    
Wind  
Wind Speed 5 mph (SSE)    
Max Wind Speed 13 mph    
Max Gust Speed 18 mph    
Visibility 10 miles    
Events Rain    
Averages and records for this station are not official NWS values.
T = Trace of Precipitation, MM = Missing Value Source: NWS Daily Summary

Daily Weather History Graph

Daily Weather History Graph

Search for Another Location

Airport or City:

Trip Planner

Search our weather history database for the weather conditions in past years. The results will help you decide how hot, cold, wet, or windy it might be!

Date:

Astronomy

Sep. 14, 2013 Rise Set
Actual Time 6:54 AM CDT 7:28 PM CDT
Civil Twilight 6:24 AM CDT 7:57 PM CDT
Nautical Twilight 5:49 AM CDT 8:32 PM CDT
Astronomical Twilight 5:13 AM CDT 9:08 PM CDT
Moon 4:19 PM CDT (9/14) 1:16 AM CDT (9/14)
Length of Visible Light 13h 32m
Length of Day
12h 34m
Waxing Gibbous, 72% of the Moon is Illuminated
Sep 14
Waxing Gibbous
Sep 19
Full
Sep 26
Last Quarter
Oct 4
New
Oct 11
First Quarter

Hourly Weather History & Observations

Time (CDT) Temp. Dew Point Humidity Pressure Visibility Wind Dir Wind Speed Gust Speed Precip Events Conditions
12:13 AM 51.8 °F 42.6 °F 71% 30.09 in 10.0 mi SE 4.6 mph - N/A   Clear
12:34 AM 52.0 °F 42.8 °F 71% 30.08 in 10.0 mi SE 4.6 mph - N/A   Clear
12:53 AM 51.8 °F 42.8 °F 71% 30.08 in 10.0 mi SE 4.6 mph - N/A   Clear
1:14 AM 52.2 °F 42.8 °F 70% 30.08 in 10.0 mi Calm Calm - N/A   Clear
1:34 AM 49.8 °F 41.9 °F 74% 30.08 in 10.0 mi Calm Calm - N/A   Clear
1:53 AM 49.6 °F 42.3 °F 76% 30.08 in 10.0 mi Calm Calm - N/A   Clear
2:14 AM 49.6 °F 42.6 °F 77% 30.08 in 10.0 mi Calm Calm - N/A   Clear
2:33 AM 50.9 °F 43.2 °F 75% 30.08 in 10.0 mi South 3.5 mph - N/A   Clear
2:54 AM 50.9 °F 43.0 °F 74% 30.08 in 10.0 mi Calm Calm - N/A   Clear
3:14 AM 50.4 °F 42.8 °F 75% 30.07 in 10.0 mi Calm Calm - N/A   Clear
3:34 AM 50.4 °F 42.4 °F 74% 30.07 in 10.0 mi South 4.6 mph - N/A   Clear
3:53 AM 50.2 °F 42.3 °F 74% 30.07 in 10.0 mi South 3.5 mph - N/A   Clear
4:14 AM 50.2 °F 42.3 °F 74% 30.06 in 10.0 mi Calm Calm - N/A   Clear
4:34 AM 50.0 °F 42.3 °F 75% 30.06 in 10.0 mi South 4.6 mph - N/A   Clear
4:54 AM 50.0 °F 42.3 °F 75% 30.06 in 10.0 mi South 4.6 mph - N/A   Clear
5:13 AM 50.0 °F 42.1 °F 74% 30.06 in 10.0 mi South 3.5 mph - N/A   Clear
5:34 AM 49.5 °F 42.1 °F 76% 30.06 in 10.0 mi South 4.6 mph - N/A   Clear
5:54 AM 49.6 °F 42.1 °F 75% 30.06 in 10.0 mi South 4.6 mph - N/A   Clear
6:13 AM 49.5 °F 42.1 °F 76% 30.06 in 10.0 mi South 4.6 mph - N/A   Clear
6:33 AM 49.5 °F 42.1 °F 76% 30.05 in 10.0 mi South 6.9 mph - N/A   Clear
6:54 AM 49.3 °F 42.1 °F 76% 30.05 in 10.0 mi South 5.8 mph - N/A   Clear
7:14 AM 49.3 °F 42.3 °F 77% 30.05 in 10.0 mi South 3.5 mph - N/A   Clear
7:34 AM 49.5 °F 42.4 °F 77% 30.05 in 10.0 mi South 4.6 mph - N/A   Clear
7:53 AM 50.9 °F 42.8 °F 74% 30.04 in 10.0 mi South 4.6 mph - N/A   Clear
8:14 AM 52.7 °F 43.7 °F 71% 30.04 in 10.0 mi South 5.8 mph - N/A   Clear
8:34 AM 54.1 °F 43.5 °F 67% 30.03 in 10.0 mi South 5.8 mph - N/A   Clear
8:53 AM 54.7 °F 43.5 °F 66% 30.03 in 10.0 mi South 6.9 mph - N/A   Clear
9:13 AM 57.2 °F 44.6 °F 63% 30.03 in 10.0 mi South 8.1 mph - N/A   Clear
9:34 AM 59.7 °F 44.8 °F 58% 30.03 in 10.0 mi South 10.4 mph - N/A   Clear
9:53 AM 62.4 °F 44.6 °F 52% 30.02 in 10.0 mi South 11.5 mph 16.1 mph N/A   Clear
10:14 AM 62.6 °F 44.4 °F 51% 30.02 in 10.0 mi South 10.4 mph - N/A   Clear
10:34 AM 64.6 °F 44.8 °F 49% 30.01 in 10.0 mi South 8.1 mph - N/A   Clear
10:54 AM 66.6 °F 44.6 °F 45% 30.00 in 10.0 mi South 8.1 mph - N/A   Clear
11:14 AM 68.2 °F 44.6 °F 43% 30.00 in 10.0 mi South 12.7 mph 16.1 mph N/A   Clear
11:33 AM 69.8 °F 44.4 °F 40% 30.00 in 10.0 mi South 9.2 mph - N/A   Clear
11:53 AM 72.0 °F 43.5 °F 36% 29.99 in 10.0 mi South 12.7 mph 18.4 mph N/A   Clear
12:14 PM 71.2 °F 44.1 °F 38% 29.98 in 10.0 mi South 10.4 mph - N/A   Clear
12:33 PM 72.5 °F 44.1 °F 36% 29.98 in 10.0 mi South 10.4 mph - N/A   Clear
12:54 PM 72.5 °F 43.0 °F 35% 29.97 in 10.0 mi SSW 9.2 mph 18.4 mph N/A   Clear
1:14 PM 71.6 °F 44.1 °F 37% 29.97 in 10.0 mi South 6.9 mph - N/A   Clear
1:34 PM 72.0 °F 43.3 °F 36% 29.96 in 10.0 mi South 11.5 mph - N/A   Scattered Clouds
1:54 PM 72.7 °F 43.9 °F 36% 29.95 in 10.0 mi SSW 9.2 mph - N/A   Scattered Clouds
2:13 PM 72.5 °F 43.3 °F 35% 29.95 in 10.0 mi South 10.4 mph - N/A   Scattered Clouds
2:33 PM 72.7 °F 43.7 °F 35% 29.94 in 10.0 mi South 10.4 mph 18.4 mph N/A   Mostly Cloudy
2:54 PM 71.6 °F 44.1 °F 37% 29.94 in 10.0 mi SSW 8.1 mph - N/A   Overcast
3:14 PM 70.7 °F 44.6 °F 39% 29.94 in 10.0 mi South 5.8 mph - N/A   Overcast
3:33 PM 70.0 °F 45.0 °F 41% 29.92 in 10.0 mi SSE 5.8 mph - N/A   Overcast
3:53 PM 69.8 °F 46.9 °F 44% 29.92 in 10.0 mi SSE 4.6 mph - N/A Rain Light Rain
4:14 PM 67.1 °F 51.4 °F 57% 29.92 in 7.0 mi South 3.5 mph - N/A Rain Rain
4:33 PM 64.8 °F 53.2 °F 66% 29.91 in 7.0 mi SE 4.6 mph - 0.02 in Rain Light Rain
4:54 PM 63.9 °F 54.5 °F 72% 29.90 in 10.0 mi SE 4.6 mph - 0.02 in Rain Rain
5:13 PM 63.5 °F 54.9 °F 73% 29.89 in 10.0 mi ESE 5.8 mph - N/A Rain Light Rain
5:33 PM 62.2 °F 52.3 °F 70% 29.89 in 7.0 mi SSE 6.9 mph - 0.02 in Rain Light Rain
5:54 PM 61.3 °F 53.2 °F 75% 29.89 in 10.0 mi Calm Calm - 0.02 in Rain Rain
6:14 PM 61.7 °F 53.8 °F 75% 29.89 in 7.0 mi South 3.5 mph - 0.01 in Rain Rain
6:33 PM 61.0 °F 53.6 °F 77% 29.87 in 10.0 mi SE 6.9 mph - 0.01 in Rain Rain
6:53 PM 60.3 °F 54.1 °F 80% 29.89 in 10.0 mi NNE 3.5 mph - 0.01 in   Light Drizzle
7:14 PM 59.4 °F 54.3 °F 83% 29.91 in 7.0 mi North 4.6 mph - 0.02 in Rain Light Rain
7:34 PM 59.0 °F 54.3 °F 84% 29.91 in 4.0 mi Calm Calm - 0.11 in Rain Heavy Rain
7:54 PM 58.3 °F 54.3 °F 87% 29.91 in 5.0 mi ENE 5.8 mph - 0.16 in Rain Light Rain
8:14 PM 58.1 °F 54.5 °F 88% 29.91 in 7.0 mi East 6.9 mph - 0.01 in Rain Light Rain
8:34 PM 57.7 °F 54.0 °F 87% 29.91 in 10.0 mi East 9.2 mph - 0.02 in Rain Light Rain
8:54 PM 57.2 °F 53.6 °F 88% 29.90 in 10.0 mi East 10.4 mph - 0.02 in Rain Rain
9:13 PM 57.2 °F 53.6 °F 88% 29.91 in 10.0 mi East 9.2 mph - 0.01 in Rain Rain
9:33 PM 57.0 °F 53.6 °F 88% 29.90 in 7.0 mi East 9.2 mph - 0.02 in   Light Drizzle
9:54 PM 57.2 °F 54.0 °F 89% 29.90 in 7.0 mi East 12.7 mph - 0.05 in Rain Light Rain
10:14 PM 57.4 °F 54.1 °F 89% 29.89 in 7.0 mi East 12.7 mph - N/A   Light Drizzle
10:33 PM 57.4 °F 54.1 °F 89% 29.89 in 10.0 mi East 11.5 mph 17.3 mph N/A   Overcast
10:54 PM 57.4 °F 54.0 °F 88% 29.90 in 10.0 mi East 11.5 mph - N/A   Light Drizzle
11:14 PM 57.2 °F 54.0 °F 89% 29.89 in 10.0 mi East 12.7 mph - 0.01 in   Overcast
11:34 PM 57.2 °F 53.8 °F 88% 29.89 in 10.0 mi East 9.2 mph - 0.01 in   Overcast
11:53 PM 57.2 °F 53.8 °F 88% 29.88 in 10.0 mi East 11.5 mph - 0.01 in   Overcast